Change the Weather History Date:

Tuesday, December 20, 2011

  Actual Average Record
Temperature  
Mean Temperature 38 °F -  
Max Temperature 46 °F 47 °F 73 °F (2010)
Min Temperature 30 °F 27 °F 16 °F (1996)
Degree Days  
Heating Degree Days 27    
Moisture  
Dew Point 35 °F    
Average Humidity 91    
Maximum Humidity 100    
Minimum Humidity 78    
Precipitation  
Precipitation 0.01 in - - ()
Sea Level Pressure  
Sea Level Pressure 29.86 in    
Wind  
Wind Speed 15 mph (NNW)    
Max Wind Speed 30 mph    
Max Gust Speed 37 mph    
Visibility 5 miles    
Events Fog , Rain , Snow    
Averages and records for this station are not official NWS values.
T = Trace of Precipitation, MM = Missing Value Source: NWS Daily Summary

Daily Weather History Graph

Daily Weather History Graph

Search for Another Location

Airport or City:

Trip Planner

Search our weather history database for the weather conditions in past years. The results will help you decide how hot, cold, wet, or windy it might be!

Date:

Astronomy

Dec. 20, 2011 Rise Set
Actual Time 7:41 AM CST 5:27 PM CST
Civil Twilight 7:12 AM CST 5:55 PM CST
Nautical Twilight 6:41 AM CST 6:27 PM CST
Astronomical Twilight 6:09 AM CST 6:58 PM CST
Moon 3:09 AM CST (12/20) 2:00 PM CST (12/20)
Length of Visible Light 10h 43m
Length of Day
9h 46m
Waning Crescent, 21% of the Moon is Illuminated
Dec 20
Waning Crescent
Dec 24
New
Jan 1
First Quarter
Jan 9
Full
Jan 16
Last Quarter

Hourly Weather History & Observations

Time (CST) Temp. Windchill Dew Point Humidity Pressure Visibility Wind Dir Wind Speed Gust Speed Precip Events Conditions
12:53 AM 46.0 °F 40.6 °F 45.0 °F 96% 29.75 in 0.2 mi NE 11.5 mph - N/A Fog Fog
1:53 AM 45.0 °F 40.1 °F 45.0 °F 100% 29.75 in 0.2 mi NE 9.2 mph - N/A Fog Fog
2:16 AM 46.4 °F 41.9 °F 44.6 °F 93% 29.75 in 0.2 mi NE 9.2 mph - N/A Fog Fog
2:27 AM 46.4 °F 41.9 °F 44.6 °F 93% 29.75 in 0.2 mi NE 9.2 mph - N/A Fog Fog
2:36 AM 46.4 °F 41.5 °F 44.6 °F 93% 29.75 in 0.2 mi NNE 10.4 mph - N/A Fog Fog
2:44 AM 44.6 °F 39.7 °F 44.6 °F 100% 29.75 in 0.2 mi NNE 9.2 mph - N/A Fog Fog
2:53 AM 45.0 °F 39.3 °F 45.0 °F 100% 29.74 in 0.2 mi NNE 11.5 mph - N/A Fog Fog
3:53 AM 45.0 °F 39.3 °F 45.0 °F 100% 29.73 in 0.2 mi NNE 11.5 mph - N/A Fog Fog
4:28 AM 44.6 °F 38.4 °F 44.6 °F 100% 29.74 in 0.2 mi NE 12.7 mph - N/A Fog Fog
4:46 AM 44.6 °F 38.1 °F 44.6 °F 100% 29.74 in 0.8 mi NNE 13.8 mph - N/A   Mist
4:53 AM 45.0 °F 39.7 °F 44.1 °F 97% 29.73 in 0.5 mi NNE 10.4 mph - N/A Fog Fog
5:25 AM 42.8 °F 34.5 °F 42.8 °F 100% 29.74 in 0.2 mi North 18.4 mph - N/A Fog Fog
5:53 AM 42.1 °F 33.3 °F 41.0 °F 96% 29.73 in 0.2 mi North 19.6 mph - N/A Fog Fog
6:19 AM 39.2 °F 28.5 °F 39.2 °F 100% 29.76 in 1.0 mi NNW 24.2 mph 27.6 mph N/A   Mist
6:53 AM 39.0 °F 28.3 °F 37.9 °F 96% 29.81 in 5.0 mi NNW 24.2 mph 31.1 mph 0.00 in Rain Light Rain
7:10 AM 37.4 °F 25.9 °F 37.4 °F 100% 29.81 in 2.0 mi NNW 25.3 mph 35.7 mph 0.01 in Snow Light Snow
7:27 AM 37.4 °F 26.1 °F 35.6 °F 93% 29.81 in 4.0 mi NNW 24.2 mph 33.4 mph 0.01 in Snow Light Snow
7:53 AM 36.0 °F 23.7 °F 35.1 °F 97% 29.84 in 3.0 mi NNW 26.5 mph 33.4 mph 0.01 in Snow Light Snow
8:05 AM 35.6 °F 24.2 °F 35.6 °F 100% 29.84 in 2.5 mi NNW 21.9 mph 31.1 mph 0.00 in Snow Light Snow
8:25 AM 35.6 °F 22.5 °F 33.8 °F 93% 29.85 in 3.0 mi NNW 29.9 mph 35.7 mph 0.00 in   Overcast
8:53 AM 34.0 °F 21.0 °F 33.1 °F 96% 29.86 in 6.0 mi NNW 26.5 mph 34.5 mph 0.00 in   Overcast
9:53 AM 33.1 °F 21.2 °F 30.9 °F 92% 29.92 in 10.0 mi NNW 20.7 mph 28.8 mph 0.00 in   Overcast
10:53 AM 33.1 °F 20.3 °F 28.9 °F 85% 29.96 in 10.0 mi NNW 24.2 mph 35.7 mph N/A   Overcast
11:53 AM 33.1 °F 19.8 °F 28.9 °F 85% 29.95 in 10.0 mi NNW 26.5 mph 33.4 mph N/A   Overcast
12:31 PM 35.6 °F 22.7 °F 30.2 °F 81% 29.91 in 10.0 mi NNW 28.8 mph 36.8 mph N/A   Overcast
12:53 PM 34.0 °F 21.5 °F 30.0 °F 85% 29.92 in 10.0 mi North 24.2 mph 36.8 mph N/A   Overcast
1:13 PM 33.8 °F 21.0 °F 30.2 °F 87% 29.90 in 10.0 mi NNW 25.3 mph 28.8 mph N/A   Overcast
3:54 PM 33.8 °F 21.6 °F 28.4 °F 81% 29.93 in 10.0 mi NW 23.0 mph - N/A   Overcast
4:54 PM 33.8 °F 23.9 °F 28.4 °F 81% 29.95 in 10.0 mi NW 15.0 mph - N/A   Overcast
5:53 PM 33.1 °F 23.0 °F 28.0 °F 82% 29.97 in 10.0 mi NW 15.0 mph - N/A   Overcast
6:53 PM 33.1 °F 24.9 °F 27.0 °F 78% 29.98 in 10.0 mi NW 10.4 mph - N/A   Overcast
7:53 PM 32.0 °F 24.2 °F 27.0 °F 82% 29.98 in 10.0 mi NW 9.2 mph - N/A   Mostly Cloudy
8:07 PM 32.0 °F 24.8 °F 26.6 °F 80% 29.95 in 10.0 mi NW 8.1 mph - N/A   Scattered Clouds
8:37 PM 30.2 °F 25.4 °F 26.6 °F 86% 29.96 in 10.0 mi WNW 4.6 mph - N/A   Mostly Cloudy
8:53 PM 30.9 °F 26.2 °F 27.0 °F 85% 29.99 in 10.0 mi WNW 4.6 mph - N/A   Overcast
9:29 PM 30.2 °F 23.4 °F 26.6 °F 86% 29.96 in 10.0 mi WNW 6.9 mph - N/A   Scattered Clouds
9:53 PM 30.9 °F 24.3 °F 27.0 °F 85% 29.99 in 10.0 mi WNW 6.9 mph - N/A   Clear
10:53 PM 30.0 °F 22.4 °F 27.0 °F 88% 30.00 in 10.0 mi West 8.1 mph - N/A   Clear
11:53 PM 30.0 °F 21.7 °F 26.1 °F 85% 29.99 in 10.0 mi West 9.2 mph - N/A   Clear